Details From HUEN - Entebbe Intl
To HTMW - Mwanza
Flight Number -
Tags Generated
Created
Modified
Stats Distance 152 nm / 282 km
Max Altitude 0 ft / 0 m
Waypoints 2
Social Downloads 1
Likes 0
Share VATSIM

Download

Looking for another format? Having issues loading an existing format? Contact us
Advertisement - Login to hide

Notes

Generated

Route

HUEN HTMW

ID Type Via Altitude Latitude Longitude Leg Dist Tot Dist Heading (true) Name
O HUEN APT - 0 ft / 0 m 0.05123˚ 32.43912˚ - 0 nm - -
O HTMW APT - 0 ft / 0 m -2.43823˚ 32.92012˚ 152 nm 152 nm 169° / 169° -

Altitude Profile

Advertisement - Login to hide

HUEN

Details ICAO HUEN (EBB)
Name ENTEBBE INTL
Region Uganda
Timezone Africa/Kampala (UTC+3.0)
Stats Elevation 3,782 ft / 1,153 m (AMSL)
Location 0.042386° 32.443504°
Runways 2
Magnetic Variation 1.528° E

METAR

Not found

TAF

TAF HUEN 181700Z 1818/1924 24006KT 9999FEW021 FEW023CB BECMG 1820/1824 35008KT FEW019 FEW021CB SCT120 TEMPO 1902/1906 VRB12KT 8000 TS SCT018 FEW020CB BKN110 BECMG 1907/1912 20010KT 9000 FEW023 FEW025CB SCT160 FM191600 23004KT 9999 FEW021 FEW023CB BECMG 1920/1924 36007KT 9000 FEW019 FEW021CB SCT120

Decode

Departure Runways

ID Width Length Bearing (true) Bearing (mag) Surface Threshold Offset Overrun Length
12 150 ft / 46 m 8,014 ft / 2,443 m 121.34° 119.81° Asphalt 0 ft / 0 m 0 ft / 0 m
17 150 ft / 46 m 12,073 ft / 3,680 m 171.06° 169.53° Asphalt 0 ft / 0 m 0 ft / 0 m
30 150 ft / 46 m 8,014 ft / 2,443 m 301.34° 299.81° Asphalt 0 ft / 0 m 0 ft / 0 m
35 150 ft / 46 m 12,073 ft / 3,680 m 351.06° 349.53° Asphalt 0 ft / 0 m 0 ft / 0 m

HTMW

Details ICAO HTMW (MWZ)
Name MWANZA
Region Tanzania
Timezone Africa/Dar_es_Salaam (UTC+3.0)
Stats Elevation 3,763 ft / 1,147 m (AMSL)
Location -2.444485° 32.932665°
Runways 1
Magnetic Variation 0.867° E

METAR

Not found

TAF

HTMW 181700Z 1818/1918 00000KT 9999 FEW022 FEW023CB BECMG 1902/1904 09010KT SCT018 FEW019CB SCT080 TEMPO 1908/1912 27010KT TS BECMG 1916/1918 00000KT NSW

Decode

Destination Runways

ID Width Length Bearing (true) Bearing (mag) Surface Threshold Offset Overrun Length
12 148 ft / 45 m 10,223 ft / 3,116 m 116.54° 115.67° Asphalt 300 ft / 91 m 615 ft / 187 m
30 148 ft / 45 m 10,223 ft / 3,116 m 296.54° 295.67° Asphalt 0 ft / 0 m 0 ft / 0 m

Popular Alternatives